Regional Weather Roundup
Issued by NWS Cleveland, OH

Home | Current Version | Previous Version | Graphics & Text | Print | Product List | Glossary On
Versions: 1 2 3 4 5 6 7 8 9 10 11 12 13 14 15 16 17 18 19 20 21 22 23 24 25 26 27 28 29 30 31 32 33 34 35 36 37 38 39 40 41 42 43 44 45 46 47 48 49 50
000
ASUS41 KCLE 060710
RWRCLE
OHIO REGIONAL WEATHER ROUNDUP
NATIONAL WEATHER SERVICE CLEVELAND, OH
300 AM EDT WED MAY 06 2015

NOTE: "FAIR" INDICATES FEW OR NO CLOUDS BELOW 12,000 FEET WITH NO
SIGNIFICANT WEATHER AND/OR OBSTRUCTIONS TO VISIBILITY.

OHZ001>008-015>018-024>027-034-035-043-044-060800-
   NORTHWEST OHIO

CITY           SKY/WX    TMP DP  RH WIND       PRES   REMARKS
DEFIANCE       CLOUDY    53  51  93 E7        30.23F FOG
FINDLAY        CLOUDY    54  52  93 N7        30.22S FOG
TOLEDO EXPRESS CLOUDY    51  50  96 E6        30.23F FOG
TOLEDO EXEC    CLOUDY    51  49  92 NE8       30.24F FOG
LIMA           FOG       54  54 100 NE6       30.22F VSB 1/4
$$

OHZ009>014-019>023-028>033-038-089-060800-
   NORTHEAST OHIO

CITY           SKY/WX    TMP DP  RH WIND       PRES   REMARKS
CLE-HOPKINS    CLOUDY    56  55  97 S5        30.23F FOG
CLE-LAKEFRONT  CLOUDY    53  51  93 CALM      30.21F FOG
CUY CO. ARPT   NOT AVBL
LORAIN-ELYRIA  MOCLDY    52  51  97 CALM      30.22F FOG
ASHTABULA      LGT RAIN  55  54  96 N7        30.23F FOG
AKRON-CANTON   PTCLDY    58  55  90 NE6       30.23F FOG
WOOSTER        PTCLDY    55  54  96 E5        30.23F FOG
MANSFIELD      CLEAR     55  54  96 E6        30.22F FOG
YOUNGSTOWN     CLOUDY    58  57  97 E5        30.23F FOG
$$

OHZ042-051>053-060>062-070>072-077>081-060800-
  SOUTHWEST OHIO

CITY           SKY/WX    TMP DP  RH WIND       PRES   REMARKS
CINC-COVINGTON PTCLDY    65  53  65 CALM      30.20S
CINC-LUNKEN    CLEAR     56  56 100 CALM      30.20F FOG
HAMILTON       CLEAR     56  55  97 CALM      30.20F
DAYTON         PTCLDY    65  54  67 CALM      30.20F
WRIGHT-PAT AFB CLEAR     58  57  96 NE3       30.19F
DAYTON GENERAL CLEAR     65  52  62 S3        30.19F
WILMINGTON     CLEAR     62  51  67 CALM      30.20F
$$

OHZ036-037-039>041-045>050-054>059-063>069-073>076-082>088-060800-
  CENTRAL AND SOUTHEAST OHIO

CITY           SKY/WX    TMP DP  RH WIND       PRES   REMARKS
COLUMBUS       PTCLDY    61  56  83 CALM      30.19F
OSU AIRPORT    CLEAR     57  56  96 NW5       30.20F FOG
BOLTON FIELD   CLEAR     58  56  92 NW5       30.20F
RICKENBACK AFB CLEAR     59  53  80 S5        30.19F
NEWARK         CLEAR     57  55  93 CALM      30.20S FOG
MARION         CLOUDY    59  57  93 CALM      30.21F FOG
LANCASTER      CLEAR     55  52  89 CALM      30.20F
ZANESVILLE     CLEAR     58  55  90 CALM      30.20F FOG
NEW PHILLY     CLOUDY    61  59  93 NE3       30.23F FOG
$$


USA.gov is the U.S. government's official web portal to all federal, state and local government web resources and services.